Year,Month,Day,Hour,Minute,Value (Times are PST for temperature in C)
2005,10,25,00,00,5.80
2005,10,25,00,01,5.80
2005,10,25,00,02,5.80
2005,10,25,00,03,5.80
2005,10,25,00,04,5.80
2005,10,25,00,05,5.80
2005,10,25,00,06,5.80
2005,10,25,00,07,5.80
2005,10,25,00,08,5.80
2005,10,25,00,09,5.90
2005,10,25,00,10,5.90
2005,10,25,00,11,6.00
2005,10,25,00,12,6.00
2005,10,25,00,13,6.00
2005,10,25,00,14,6.00
2005,10,25,00,15,6.00
2005,10,25,00,16,6.00
2005,10,25,00,17,6.00
2005,10,25,00,18,6.00
2005,10,25,00,19,6.10
2005,10,25,00,20,6.10
2005,10,25,00,21,6.10
2005,10,25,00,22,6.20
2005,10,25,00,23,6.20
2005,10,25,00,24,6.20
2005,10,25,00,25,6.20
2005,10,25,00,26,6.20
2005,10,25,00,27,6.20
2005,10,25,00,28,6.20
2005,10,25,00,29,6.30
2005,10,25,00,30,6.30
2005,10,25,00,31,6.30
2005,10,25,00,32,6.30
2005,10,25,00,33,6.30
2005,10,25,00,34,6.30
2005,10,25,00,35,6.30
2005,10,25,00,36,6.30
2005,10,25,00,37,6.30
2005,10,25,00,38,6.30
2005,10,25,00,39,6.30
2005,10,25,00,40,6.30
2005,10,25,00,41,6.30
2005,10,25,00,42,6.30
2005,10,25,00,43,6.30
2005,10,25,00,44,6.30
2005,10,25,00,45,6.30
2005,10,25,00,46,6.30
2005,10,25,00,47,6.30
2005,10,25,00,48,6.40
2005,10,25,00,49,6.40
2005,10,25,00,50,6.40
2005,10,25,00,51,6.40
2005,10,25,00,52,6.40
2005,10,25,00,53,6.40
2005,10,25,00,54,6.40
2005,10,25,00,55,6.40
2005,10,25,00,56,6.40
2005,10,25,00,57,6.40
2005,10,25,00,58,6.40
2005,10,25,00,59,6.40
2005,10,25,01,00,6.40
2005,10,25,01,01,6.40
2005,10,25,01,02,6.40
2005,10,25,01,03,6.40
2005,10,25,01,04,6.40
2005,10,25,01,05,6.40
2005,10,25,01,06,6.40
2005,10,25,01,07,6.30
2005,10,25,01,08,6.30
2005,10,25,01,09,6.30
2005,10,25,01,10,6.30
2005,10,25,01,11,6.30
2005,10,25,01,12,6.30
2005,10,25,01,13,6.30
2005,10,25,01,14,6.20
2005,10,25,01,15,6.20
2005,10,25,01,16,6.20
2005,10,25,01,17,6.30
2005,10,25,01,18,6.30
2005,10,25,01,19,6.40
2005,10,25,01,20,6.40
2005,10,25,01,21,6.50
2005,10,25,01,22,6.60
2005,10,25,01,23,6.60
2005,10,25,01,24,6.60
2005,10,25,01,25,6.60
2005,10,25,01,26,6.60
2005,10,25,01,27,6.60
2005,10,25,01,28,6.60
2005,10,25,01,29,6.60
2005,10,25,01,30,6.60
2005,10,25,01,31,6.60
2005,10,25,01,32,6.70
2005,10,25,01,33,6.70
2005,10,25,01,34,6.70
2005,10,25,01,35,6.70
2005,10,25,01,36,6.70
2005,10,25,01,37,6.80
2005,10,25,01,38,6.80
2005,10,25,01,39,6.90
2005,10,25,01,40,7.00
2005,10,25,01,41,7.10
2005,10,25,01,42,7.10
2005,10,25,01,43,7.20
2005,10,25,01,44,7.20
2005,10,25,01,45,7.30
2005,10,25,01,46,7.40
2005,10,25,01,47,7.40
2005,10,25,01,48,7.50
2005,10,25,01,49,7.60
2005,10,25,01,50,7.70
2005,10,25,01,51,7.70
2005,10,25,01,52,7.70
2005,10,25,01,53,7.80
2005,10,25,01,54,7.80
2005,10,25,01,55,7.80
2005,10,25,01,56,7.80
2005,10,25,01,57,7.80
2005,10,25,01,58,7.80
2005,10,25,01,59,7.80
2005,10,25,02,00,7.80
2005,10,25,02,01,7.70
2005,10,25,02,02,7.60
2005,10,25,02,03,7.50
2005,10,25,02,04,7.50
2005,10,25,02,05,7.40
2005,10,25,02,06,7.40
2005,10,25,02,07,7.30
2005,10,25,02,08,7.30
2005,10,25,02,09,7.30
2005,10,25,02,10,7.30
2005,10,25,02,11,7.30
2005,10,25,02,12,7.30
2005,10,25,02,13,7.30
2005,10,25,02,14,7.30
2005,10,25,02,15,7.30
2005,10,25,02,16,7.30
2005,10,25,02,17,7.30
2005,10,25,02,18,7.30
2005,10,25,02,19,7.30
2005,10,25,02,20,7.30
2005,10,25,02,21,7.30
2005,10,25,02,22,7.30
2005,10,25,02,23,7.30
2005,10,25,02,24,7.30
2005,10,25,02,25,7.30
2005,10,25,02,26,7.30
2005,10,25,02,27,7.30
2005,10,25,02,28,7.30
2005,10,25,02,29,7.30
2005,10,25,02,30,7.40
2005,10,25,02,31,7.40
2005,10,25,02,32,7.40
2005,10,25,02,33,7.40
2005,10,25,02,34,7.40
2005,10,25,02,35,7.40
2005,10,25,02,36,7.40
2005,10,25,02,37,7.40
2005,10,25,02,38,7.40
2005,10,25,02,39,7.40
2005,10,25,02,40,7.40
2005,10,25,02,41,7.40
2005,10,25,02,42,7.40
2005,10,25,02,43,7.40
2005,10,25,02,44,7.50
2005,10,25,02,45,7.50
2005,10,25,02,46,7.50
2005,10,25,02,47,7.50
2005,10,25,02,48,7.50
2005,10,25,02,49,7.50
2005,10,25,02,50,7.50
2005,10,25,02,51,7.50
2005,10,25,02,52,7.60
2005,10,25,02,53,7.70
2005,10,25,02,54,7.70
2005,10,25,02,55,7.80
2005,10,25,02,56,7.80
2005,10,25,02,57,7.90
2005,10,25,02,58,7.90
2005,10,25,02,59,7.90
2005,10,25,03,00,7.90
2005,10,25,03,01,7.90
2005,10,25,03,02,7.90
2005,10,25,03,03,7.90
2005,10,25,03,04,7.90
2005,10,25,03,05,8.00
2005,10,25,03,06,8.00
2005,10,25,03,07,8.00
2005,10,25,03,08,8.10
2005,10,25,03,09,8.10
2005,10,25,03,10,8.20
2005,10,25,03,11,8.20
2005,10,25,03,12,8.30
2005,10,25,03,13,8.30
2005,10,25,03,14,8.30
2005,10,25,03,15,8.30
2005,10,25,03,16,8.40
2005,10,25,03,17,8.40
2005,10,25,03,18,8.40
2005,10,25,03,19,8.40
2005,10,25,03,20,8.40
2005,10,25,03,21,8.40
2005,10,25,03,22,8.40
2005,10,25,03,23,8.30
2005,10,25,03,24,8.20
2005,10,25,03,25,8.20
2005,10,25,03,26,8.20
2005,10,25,03,27,8.20
2005,10,25,03,28,8.20
2005,10,25,03,29,8.20
2005,10,25,03,30,8.20
2005,10,25,03,31,8.20
2005,10,25,03,32,8.20
2005,10,25,03,33,8.20
2005,10,25,03,34,8.20
2005,10,25,03,35,8.20
2005,10,25,03,36,8.20
2005,10,25,03,37,8.10
2005,10,25,03,38,8.10
2005,10,25,03,39,8.10
2005,10,25,03,40,8.10
2005,10,25,03,41,8.10
2005,10,25,03,42,8.20
2005,10,25,03,43,8.20
2005,10,25,03,44,8.30
2005,10,25,03,45,8.40
2005,10,25,03,46,8.50
2005,10,25,03,47,8.70
2005,10,25,03,48,8.70
2005,10,25,03,49,8.70
2005,10,25,03,50,8.70
2005,10,25,03,51,8.70
2005,10,25,03,52,8.70
2005,10,25,03,53,8.60
2005,10,25,03,54,8.60
2005,10,25,03,55,8.60
2005,10,25,03,56,8.50
2005,10,25,03,57,8.50
2005,10,25,03,58,8.50
2005,10,25,03,59,8.50
2005,10,25,04,00,8.50
2005,10,25,04,01,8.50
2005,10,25,04,02,8.50
2005,10,25,04,03,8.50
2005,10,25,04,04,8.40
2005,10,25,04,05,8.50
2005,10,25,04,06,8.50
2005,10,25,04,07,8.50
2005,10,25,04,08,8.60
2005,10,25,04,09,8.70
2005,10,25,04,10,8.70
2005,10,25,04,11,8.70
2005,10,25,04,12,8.80
2005,10,25,04,13,8.80
2005,10,25,04,14,8.90
2005,10,25,04,15,8.90
2005,10,25,04,16,8.90
2005,10,25,04,17,8.90
2005,10,25,04,18,9.00
2005,10,25,04,19,9.00
2005,10,25,04,20,9.00
2005,10,25,04,21,9.00
2005,10,25,04,22,9.00
2005,10,25,04,23,9.00
2005,10,25,04,24,9.00
2005,10,25,04,25,8.90
2005,10,25,04,26,8.90
2005,10,25,04,27,8.90
2005,10,25,04,28,8.90
2005,10,25,04,29,8.90
2005,10,25,04,30,8.90
2005,10,25,04,31,8.90
2005,10,25,04,32,8.80
2005,10,25,04,33,8.70
2005,10,25,04,34,8.70
2005,10,25,04,35,8.70
2005,10,25,04,36,8.70
2005,10,25,04,37,8.70
2005,10,25,04,38,8.70
2005,10,25,04,39,8.70
2005,10,25,04,40,8.70
2005,10,25,04,41,8.70
2005,10,25,04,42,8.70
2005,10,25,04,43,8.70
2005,10,25,04,44,8.70
2005,10,25,04,45,8.70
2005,10,25,04,46,8.70
2005,10,25,04,47,8.70
2005,10,25,04,48,8.70
2005,10,25,04,49,8.70
2005,10,25,04,50,8.70
2005,10,25,04,51,8.70
2005,10,25,04,52,8.70
2005,10,25,04,53,8.70
2005,10,25,04,54,8.70
2005,10,25,04,55,8.70
2005,10,25,04,56,8.70
2005,10,25,04,57,8.70
2005,10,25,04,58,8.70
2005,10,25,04,59,8.70
2005,10,25,05,00,8.70
2005,10,25,05,01,8.70
2005,10,25,05,02,8.70
2005,10,25,05,03,8.70
2005,10,25,05,04,8.70
2005,10,25,05,05,8.70
2005,10,25,05,06,8.70
2005,10,25,05,07,8.70
2005,10,25,05,08,8.70
2005,10,25,05,09,8.70
2005,10,25,05,10,8.70
2005,10,25,05,11,8.70
2005,10,25,05,12,8.70
2005,10,25,05,13,8.70
2005,10,25,05,14,8.70
2005,10,25,05,15,8.70
2005,10,25,05,16,8.70
2005,10,25,05,17,8.70
2005,10,25,05,18,8.70
2005,10,25,05,19,8.70
2005,10,25,05,20,8.70
2005,10,25,05,21,8.70
2005,10,25,05,22,8.70
2005,10,25,05,23,8.70
2005,10,25,05,24,8.70
2005,10,25,05,25,8.70
2005,10,25,05,26,8.70
2005,10,25,05,27,8.70
2005,10,25,05,28,8.70
2005,10,25,05,29,8.70
2005,10,25,05,30,8.70
2005,10,25,05,31,8.70
2005,10,25,05,32,8.70
2005,10,25,05,33,8.70
2005,10,25,05,34,8.70
2005,10,25,05,35,8.70
2005,10,25,05,36,8.80
2005,10,25,05,37,8.80
2005,10,25,05,38,8.80
2005,10,25,05,39,8.80
2005,10,25,05,40,8.80
2005,10,25,05,41,8.80
2005,10,25,05,42,8.80
2005,10,25,05,43,8.80
2005,10,25,05,44,8.80
2005,10,25,05,45,8.80
2005,10,25,05,46,8.80
2005,10,25,05,47,8.80
2005,10,25,05,48,8.80
2005,10,25,05,49,8.80
2005,10,25,05,50,8.80
2005,10,25,05,51,8.80
2005,10,25,05,52,8.80
2005,10,25,05,53,8.80
2005,10,25,05,54,8.80
2005,10,25,05,55,8.80
2005,10,25,05,56,8.80
2005,10,25,05,57,8.80
2005,10,25,05,58,8.80
2005,10,25,05,59,8.80
2005,10,25,06,00,8.80
2005,10,25,06,01,8.80
2005,10,25,06,02,8.80
2005,10,25,06,03,8.80
2005,10,25,06,04,8.80
2005,10,25,06,05,8.80
2005,10,25,06,06,8.80
2005,10,25,06,07,8.80
2005,10,25,06,08,8.80
2005,10,25,06,09,8.80
2005,10,25,06,10,8.80
2005,10,25,06,11,8.80
2005,10,25,06,12,8.80
2005,10,25,06,13,8.80
2005,10,25,06,14,8.80
2005,10,25,06,15,8.80
2005,10,25,06,16,8.80
2005,10,25,06,17,8.80
2005,10,25,06,18,8.80
2005,10,25,06,19,8.80
2005,10,25,06,20,8.80
2005,10,25,06,21,8.80
2005,10,25,06,22,8.80
2005,10,25,06,23,8.80
2005,10,25,06,24,8.80
2005,10,25,06,25,8.80
2005,10,25,06,26,8.80
2005,10,25,06,27,8.80
2005,10,25,06,28,8.80
2005,10,25,06,29,8.80
2005,10,25,06,30,8.80
2005,10,25,06,31,8.80
2005,10,25,06,32,8.80
2005,10,25,06,33,8.80
2005,10,25,06,34,8.80
2005,10,25,06,35,8.80
2005,10,25,06,36,8.80
2005,10,25,06,37,8.80
2005,10,25,06,38,8.80
2005,10,25,06,39,8.80
2005,10,25,06,40,8.80
2005,10,25,06,41,8.80
2005,10,25,06,42,8.80
2005,10,25,06,43,8.80
2005,10,25,06,44,8.80
2005,10,25,06,45,8.80
2005,10,25,06,46,8.80
2005,10,25,06,47,8.80
2005,10,25,06,48,8.80
2005,10,25,06,49,8.80
2005,10,25,06,50,8.80
2005,10,25,06,51,8.80
2005,10,25,06,52,8.80
2005,10,25,06,53,8.80
2005,10,25,06,54,8.80
2005,10,25,06,55,8.80
2005,10,25,06,56,8.80
2005,10,25,06,57,8.80
2005,10,25,06,58,8.90
2005,10,25,06,59,8.90
2005,10,25,07,00,8.90
2005,10,25,07,01,8.90
2005,10,25,07,02,8.90
2005,10,25,07,03,8.90
2005,10,25,07,04,8.90
2005,10,25,07,05,8.90
2005,10,25,07,06,8.90
2005,10,25,07,07,8.90
2005,10,25,07,08,8.90
2005,10,25,07,09,8.90
2005,10,25,07,10,8.90
2005,10,25,07,11,8.90
2005,10,25,07,12,8.90
2005,10,25,07,13,8.90
2005,10,25,07,14,8.90
2005,10,25,07,15,8.90
2005,10,25,07,16,8.90
2005,10,25,07,17,8.90
2005,10,25,07,18,8.90
2005,10,25,07,19,8.90
2005,10,25,07,20,8.90
2005,10,25,07,21,8.90
2005,10,25,07,22,8.90
2005,10,25,07,23,8.90
2005,10,25,07,24,8.90
2005,10,25,07,25,8.90
2005,10,25,07,26,9.00
2005,10,25,07,27,9.00
2005,10,25,07,28,9.00
2005,10,25,07,29,9.00
2005,10,25,07,30,9.00
2005,10,25,07,31,9.00
2005,10,25,07,32,9.00
2005,10,25,07,33,9.00
2005,10,25,07,34,9.00
2005,10,25,07,35,9.00
2005,10,25,07,36,9.00
2005,10,25,07,37,9.00
2005,10,25,07,38,8.90
2005,10,25,07,39,8.90
2005,10,25,07,40,8.90
2005,10,25,07,41,8.90
2005,10,25,07,42,8.90
2005,10,25,07,43,8.90
2005,10,25,07,44,8.90
2005,10,25,07,45,8.90
2005,10,25,07,46,9.00
2005,10,25,07,47,9.00
2005,10,25,07,48,9.00
2005,10,25,07,49,9.00
2005,10,25,07,50,9.00
2005,10,25,07,51,9.00
2005,10,25,07,52,9.00
2005,10,25,07,53,9.00
2005,10,25,07,54,9.00
2005,10,25,07,55,9.00
2005,10,25,07,56,9.00
2005,10,25,07,57,9.00
2005,10,25,07,58,9.00
2005,10,25,07,59,9.00
2005,10,25,08,00,9.00
2005,10,25,08,01,9.10
2005,10,25,08,02,9.10
2005,10,25,08,03,9.10
2005,10,25,08,04,9.10
2005,10,25,08,05,9.10
2005,10,25,08,06,9.10
2005,10,25,08,07,9.10
2005,10,25,08,08,9.20
2005,10,25,08,09,9.20
2005,10,25,08,10,9.20
2005,10,25,08,11,9.20
2005,10,25,08,12,9.20
2005,10,25,08,13,9.20
2005,10,25,08,14,9.20
2005,10,25,08,15,9.20
2005,10,25,08,16,9.20
2005,10,25,08,17,9.20
2005,10,25,08,18,9.20
2005,10,25,08,19,9.30
2005,10,25,08,20,9.30
2005,10,25,08,21,9.30
2005,10,25,08,22,9.40
2005,10,25,08,23,9.40
2005,10,25,08,24,9.40
2005,10,25,08,25,9.40
2005,10,25,08,26,9.50
2005,10,25,08,27,9.50
2005,10,25,08,28,9.50
2005,10,25,08,29,9.50
2005,10,25,08,30,9.60
2005,10,25,08,31,9.60
2005,10,25,08,32,9.70
2005,10,25,08,33,9.70
2005,10,25,08,34,9.70
2005,10,25,08,35,9.70
2005,10,25,08,36,9.70
2005,10,25,08,37,9.70
2005,10,25,08,38,9.70
2005,10,25,08,39,9.70
2005,10,25,08,40,9.70
2005,10,25,08,41,9.80
2005,10,25,08,42,9.80
2005,10,25,08,43,9.80
2005,10,25,08,44,9.80
2005,10,25,08,45,9.80
2005,10,25,08,46,9.90
2005,10,25,08,47,9.90
2005,10,25,08,48,9.90
2005,10,25,08,49,9.90
2005,10,25,08,50,9.90
2005,10,25,08,51,9.90
2005,10,25,08,52,9.90
2005,10,25,08,53,9.90
2005,10,25,08,54,9.90
2005,10,25,08,55,9.90
2005,10,25,08,56,9.90
2005,10,25,08,57,10.10
2005,10,25,08,58,10.10
2005,10,25,08,59,10.10
2005,10,25,09,00,10.10
2005,10,25,09,01,10.10
2005,10,25,09,02,10.10
2005,10,25,09,03,10.10
2005,10,25,09,04,10.20
2005,10,25,09,05,10.20
2005,10,25,09,06,10.20
2005,10,25,09,07,10.20
2005,10,25,09,08,10.20
2005,10,25,09,09,10.20
2005,10,25,09,10,10.20
2005,10,25,09,11,10.20
2005,10,25,09,12,10.20
2005,10,25,09,13,10.20
2005,10,25,09,14,10.20
2005,10,25,09,15,10.30
2005,10,25,09,16,10.30
2005,10,25,09,17,10.30
2005,10,25,09,18,10.30
2005,10,25,09,19,10.30
2005,10,25,09,20,10.30
2005,10,25,09,21,10.30
2005,10,25,09,22,10.30
2005,10,25,09,23,10.30
2005,10,25,09,24,10.30
2005,10,25,09,25,10.30
2005,10,25,09,26,10.30
2005,10,25,09,27,10.30
2005,10,25,09,28,10.30
2005,10,25,09,29,10.30
2005,10,25,09,30,10.30
2005,10,25,09,31,10.30
2005,10,25,09,32,10.30
2005,10,25,09,33,10.30
2005,10,25,09,34,10.30
2005,10,25,09,35,10.30
2005,10,25,09,36,10.30
2005,10,25,09,37,10.30
2005,10,25,09,38,10.30
2005,10,25,09,39,10.30
2005,10,25,09,40,10.30
2005,10,25,09,41,10.30
2005,10,25,09,42,10.30
2005,10,25,09,43,10.30
2005,10,25,09,44,10.30
2005,10,25,09,45,10.30
2005,10,25,09,46,10.30
2005,10,25,09,47,10.30
2005,10,25,09,48,10.40
2005,10,25,09,49,10.40
2005,10,25,09,50,10.40
2005,10,25,09,51,10.40
2005,10,25,09,52,10.40
2005,10,25,09,53,10.40
2005,10,25,09,54,10.40
2005,10,25,09,55,10.40
2005,10,25,09,56,10.40
2005,10,25,09,57,10.40
2005,10,25,09,58,10.40
2005,10,25,09,59,10.40
2005,10,25,10,00,10.40
2005,10,25,10,01,10.40
2005,10,25,10,02,10.50
2005,10,25,10,03,10.60
2005,10,25,10,04,10.50
2005,10,25,10,05,10.40
2005,10,25,10,06,10.50
2005,10,25,10,07,10.60
2005,10,25,10,08,10.60
2005,10,25,10,09,10.60
2005,10,25,10,10,10.60
2005,10,25,10,11,10.60
2005,10,25,10,12,10.60
2005,10,25,10,13,10.60
2005,10,25,10,14,10.60
2005,10,25,10,15,10.60
2005,10,25,10,16,10.60
2005,10,25,10,17,10.60
2005,10,25,10,18,10.60
2005,10,25,10,19,10.60
2005,10,25,10,20,10.60
2005,10,25,10,21,10.60
2005,10,25,10,22,10.60
2005,10,25,10,23,10.60
2005,10,25,10,24,10.50
2005,10,25,10,25,10.40
2005,10,25,10,26,10.40
2005,10,25,10,27,10.40
2005,10,25,10,28,10.40
2005,10,25,10,29,10.40
2005,10,25,10,30,10.40
2005,10,25,10,31,10.40
2005,10,25,10,32,10.50
2005,10,25,10,33,10.60
2005,10,25,10,34,10.60
2005,10,25,10,35,10.60
2005,10,25,10,36,10.60
2005,10,25,10,37,10.60
2005,10,25,10,38,10.70
2005,10,25,10,39,10.70
2005,10,25,10,40,10.80
2005,10,25,10,41,10.80
2005,10,25,10,42,10.90
2005,10,25,10,43,10.90
2005,10,25,10,44,10.90
2005,10,25,10,45,10.90
2005,10,25,10,46,10.90
2005,10,25,10,47,10.90
2005,10,25,10,48,10.90
2005,10,25,10,49,10.90
2005,10,25,10,50,10.90
2005,10,25,10,51,10.90
2005,10,25,10,52,10.90
2005,10,25,10,53,10.90
2005,10,25,10,54,10.90
2005,10,25,10,55,10.90
2005,10,25,10,56,10.90
2005,10,25,10,57,10.90
2005,10,25,10,58,10.90
2005,10,25,10,59,10.90
2005,10,25,11,00,10.90
2005,10,25,11,01,10.90
2005,10,25,11,02,11.00
2005,10,25,11,03,11.10
2005,10,25,11,04,11.10
2005,10,25,11,05,11.10
2005,10,25,11,06,11.20
2005,10,25,11,07,11.20
2005,10,25,11,08,11.30
2005,10,25,11,09,11.30
2005,10,25,11,10,11.30
2005,10,25,11,11,11.30
2005,10,25,11,12,11.30
2005,10,25,11,13,11.30
2005,10,25,11,14,11.30
2005,10,25,11,15,11.30
2005,10,25,11,16,11.30
2005,10,25,11,17,11.30
2005,10,25,11,18,11.30
2005,10,25,11,19,11.30
2005,10,25,11,20,11.30
2005,10,25,11,21,11.30
2005,10,25,11,22,11.20
2005,10,25,11,23,11.20
2005,10,25,11,24,11.20
2005,10,25,11,25,11.20
2005,10,25,11,26,11.20
2005,10,25,11,27,11.20
2005,10,25,11,28,11.20
2005,10,25,11,29,11.20
2005,10,25,11,30,11.20
2005,10,25,11,31,11.20
2005,10,25,11,32,11.20
2005,10,25,11,33,11.30
2005,10,25,11,34,11.30
2005,10,25,11,35,11.30
2005,10,25,11,36,11.30
2005,10,25,11,37,11.30
2005,10,25,11,38,11.30
2005,10,25,11,39,11.30
2005,10,25,11,40,11.40
2005,10,25,11,41,11.40
2005,10,25,11,42,11.40
2005,10,25,11,43,11.40
2005,10,25,11,44,11.40
2005,10,25,11,45,11.40
2005,10,25,11,46,11.40
2005,10,25,11,47,11.40
2005,10,25,11,48,11.40
2005,10,25,11,49,11.40
2005,10,25,11,50,11.40
2005,10,25,11,51,11.40
2005,10,25,11,52,11.40
2005,10,25,11,53,11.40
2005,10,25,11,54,11.40
2005,10,25,11,55,11.40
2005,10,25,11,56,11.40
2005,10,25,11,57,11.40
2005,10,25,11,58,11.40
2005,10,25,11,59,11.40
2005,10,25,12,00,11.40
2005,10,25,12,01,11.40
2005,10,25,12,02,11.40
2005,10,25,12,03,11.40
2005,10,25,12,04,11.50
2005,10,25,12,05,11.60
2005,10,25,12,06,11.60
2005,10,25,12,07,11.60
2005,10,25,12,08,11.60
2005,10,25,12,09,11.60
2005,10,25,12,10,11.60
2005,10,25,12,11,11.60
2005,10,25,12,12,11.70
2005,10,25,12,13,11.70
2005,10,25,12,14,11.70
2005,10,25,12,15,11.70
2005,10,25,12,16,11.70
2005,10,25,12,17,11.70
2005,10,25,12,18,11.80
2005,10,25,12,19,11.80
2005,10,25,12,20,11.80
2005,10,25,12,21,11.80
2005,10,25,12,22,11.80
2005,10,25,12,23,11.90
2005,10,25,12,24,11.80
2005,10,25,12,25,11.80
2005,10,25,12,26,11.80
2005,10,25,12,27,11.80
2005,10,25,12,28,11.80
2005,10,25,12,29,11.80
2005,10,25,12,30,11.80
2005,10,25,12,31,11.90
2005,10,25,12,32,11.90
2005,10,25,12,33,11.90
2005,10,25,12,34,12.00
2005,10,25,12,35,12.00
2005,10,25,12,36,12.00
2005,10,25,12,37,12.00
2005,10,25,12,38,12.10
2005,10,25,12,39,12.10
2005,10,25,12,40,12.10
2005,10,25,12,41,12.10
2005,10,25,12,42,12.10
2005,10,25,12,43,12.10
2005,10,25,12,44,12.10
2005,10,25,12,45,12.10
2005,10,25,12,46,12.10
2005,10,25,12,47,12.10
2005,10,25,12,48,12.10
2005,10,25,12,49,12.10
2005,10,25,12,50,12.10
2005,10,25,12,51,12.10
2005,10,25,12,52,12.10
2005,10,25,12,53,12.10
2005,10,25,12,54,12.10
2005,10,25,12,55,12.20
2005,10,25,12,56,12.20
2005,10,25,12,57,12.20
2005,10,25,12,58,12.20
2005,10,25,12,59,12.20
2005,10,25,13,00,12.20
2005,10,25,13,01,12.20
2005,10,25,13,02,12.20
2005,10,25,13,03,12.20
2005,10,25,13,04,12.20
2005,10,25,13,05,12.20
2005,10,25,13,06,12.20
2005,10,25,13,07,12.20
2005,10,25,13,08,12.20
2005,10,25,13,09,12.20
2005,10,25,13,10,12.30
2005,10,25,13,11,12.30
2005,10,25,13,12,12.40
2005,10,25,13,13,12.50
2005,10,25,13,14,12.70
2005,10,25,13,15,12.80
2005,10,25,13,16,12.90
2005,10,25,13,17,13.00
2005,10,25,13,18,13.10
2005,10,25,13,19,13.10
2005,10,25,13,20,13.10
2005,10,25,13,21,13.20
2005,10,25,13,22,13.20
2005,10,25,13,23,13.20
2005,10,25,13,24,13.10
2005,10,25,13,25,13.10
2005,10,25,13,26,13.10
2005,10,25,13,27,13.10
2005,10,25,13,28,13.00
2005,10,25,13,29,13.10
2005,10,25,13,30,13.10
2005,10,25,13,31,13.10
2005,10,25,13,32,13.20
2005,10,25,13,33,13.30
2005,10,25,13,34,13.50
2005,10,25,13,35,13.60
2005,10,25,13,36,13.60
2005,10,25,13,37,13.70
2005,10,25,13,38,13.70
2005,10,25,13,39,13.70
2005,10,25,13,40,13.70
2005,10,25,13,41,13.70
2005,10,25,13,42,13.70
2005,10,25,13,43,13.70
2005,10,25,13,44,13.80
2005,10,25,13,45,14.00
2005,10,25,13,46,14.00
2005,10,25,13,47,14.00
2005,10,25,13,48,14.00
2005,10,25,13,49,13.90
2005,10,25,13,50,13.80
2005,10,25,13,51,13.80
2005,10,25,13,52,13.80
2005,10,25,13,53,13.90
2005,10,25,13,54,13.90
2005,10,25,13,55,13.90
2005,10,25,13,56,13.90
2005,10,25,13,57,14.00
2005,10,25,13,58,14.20
2005,10,25,13,59,14.20
2005,10,25,14,00,14.20
2005,10,25,14,01,14.20
2005,10,25,14,02,14.20
2005,10,25,14,03,14.20
2005,10,25,14,04,14.20
2005,10,25,14,05,14.20
2005,10,25,14,06,14.20
2005,10,25,14,07,14.20
2005,10,25,14,08,14.20
